Terminal Aerodrome Forecast
Issued by NWS Amarillo, TX

Home | Current Version | Previous Version | Text Only | Print | Product List | Glossary On
Versions: 1 2 3 4 5 6 7 8 9 10 11 12 13 14 15
000
FTUS44 KAMA 290500
TAFAMA
TAF
KAMA 290540Z 2906/3006 01012KT P6SM BKN300
     FM291300 01018G28KT P6SM SCT120 OVC300
     FM292300 05010KT P6SM SCT070 OVC120=

USA.gov is the U.S. government's official web portal to all federal, state and local government web resources and services.